QPF
0.00 0.00 0.00 0.00 0.00 0.00 0.00 0.01 0.02 0.02 0.02 0.02 0.02 0.01 0.00 0.00 0.00 0.00 0.00 0.00 0.00 0.00 0.00 0.00 0.00 0.00 0.00 0.00 0.00 0.00 0.00 0.00 0.00 0.00 0.00 0.00 0.00 0.00 0.00 0.00 0.00 0.00 0.00 0.00 0.00 0.00 0.00 0.00 0.00 0.00 0.00 0.00 0.00 0.00
0.00 0.00 0.00 0.00 0.00 0.00 0.00 0.01 0.02 0.05 0.03 0.03 0.02 0.02 0.02 0.02 0.01 0.00 0.00 0.00 0.00 0.00 0.00 0.00 0.00 0.00 0.00 0.00 0.00 0.00 0.00 0.00 0.00 0.00 0.00 0.00 0.00 0.00 0.00 0.00 0.00 0.00 0.00 0.00 0.00 0.00 0.00 0.00 0.00 0.00 0.00 0.00 0.00 0.00
0.00 0.00 0.00 0.00 0.00 0.00 0.00 0.00 0.01 0.04 0.05 0.03 0.04 0.03 0.03 0.04 0.03 0.01 0.00 0.00 0.00 0.00 0.00 0.00 0.00 0.00 0.00 0.00 0.00 0.00 0.00 0.00 0.00 0.00 0.00 0.00 0.00 0.00 0.00 0.00 0.00 0.00 0.00 0.00 0.00 0.00 0.00 0.00 0.00 0.00 0.00 0.00 0.00 0.00
0.00 0.00 0.00 0.00 0.00 0.01 0.00 0.00 0.01 0.02 0.05 0.05 0.06 0.08 0.07 0.06 0.08 0.05 0.01 0.00 0.00 0.00 0.00 0.00 0.00 0.00 0.00 0.00 0.00 0.00 0.00 0.00 0.00 0.00 0.00 0.00 0.00 0.00 0.00 0.00 0.00 0.00 0.00 0.00 0.00 0.00 0.00 0.00 0.00 0.00 0.00 0.00 0.00 0.00
0.00 0.00 0.01 0.02 0.02 0.02 0.02 0.01 0.00 0.01 0.03 0.06 0.08 0.12 0.14 0.14 0.18 0.17 0.07 0.02 0.00 0.00 0.00 0.00 0.00 0.00 0.00 0.00 0.00 0.00 0.00 0.00 0.00 0.00 0.00 0.00 0.00 0.00 0.00 0.00 0.00 0.00 0.00 0.00 0.00 0.00 0.00 0.00 0.00 0.00 0.00 0.00 0.00 0.00
0.00 0.00 0.00 0.01 0.03 0.04 0.04 0.02 0.01 0.00 0.02 0.05 0.09 0.15 0.23 0.28 0.38 0.40 0.22 0.06 0.00 0.00 0.02 0.01 0.00 0.00 0.00 0.00 0.00 0.00 0.00 0.00 0.00 0.00 0.00 0.00 0.00 0.00 0.00 0.00 0.00 0.00 0.00 0.00 0.00 0.00 0.00 0.00 0.00 0.00 0.00 0.00 0.00 0.00
0.00 0.00 0.00 0.00 0.00 0.02 0.04 0.05 0.05 0.04 0.01 0.03 0.09 0.18 0.33 0.46 0.52 0.36 0.15 0.02 0.00 0.04 0.13 0.04 0.00 0.00 0.00 0.00 0.00 0.00 0.00 0.00 0.00 0.00 0.00 0.00 0.00 0.00 0.00 0.00 0.00 0.00 0.00 0.00 0.00 0.00 0.00 0.00 0.00 0.00 0.00 0.00 0.00 0.00
0.00 0.00 0.00 0.00 0.00 0.00 0.01 0.01 0.02 0.03 0.04 0.05 0.11 0.25 0.46 0.63 0.68 0.45 0.21 0.10 0.02 0.07 0.12 0.05 0.00 0.00 0.00 0.00 0.00 0.00 0.00 0.00 0.00 0.00 0.00 0.00 0.00 0.00 0.00 0.00 0.00 0.00 0.00 0.00 0.00 0.00 0.00 0.00 0.00 0.00 0.00 0.00 0.00 0.00
0.00 0.00 0.00 0.00 0.00 0.00 0.00 0.01 0.04 0.06 0.09 0.12 0.17 0.42 0.89 0.99 0.60 0.28 0.11 0.10 0.09 0.13 0.12 0.03 0.00 0.00 0.00 0.00 0.00 0.00 0.00 0.00 0.00 0.00 0.00 0.00 0.00 0.00 0.00 0.00 0.00 0.00 0.00 0.00 0.00 0.00 0.00 0.00 0.00 0.00 0.00 0.00 0.00 0.00
0.00 0.00 0.00 0.00 0.00 0.00 0.00 0.00 0.00 0.01 0.04 0.13 0.43 0.71 0.74 0.50 0.18 0.05 0.22 0.46 0.42 0.23 0.09 0.02 0.00 0.00 0.00 0.00 0.00 0.00 0.01 0.00 0.00 0.00 0.00 0.00 0.00 0.00 0.00 0.00 0.00 0.00 0.00 0.00 0.00 0.00 0.00 0.00 0.00 0.00 0.00 0.00 0.00 0.00
0.00 0.00 0.00 0.00 0.00 0.00 0.00 0.00 0.00 0.01 0.04 0.20 0.38 0.42 0.38 0.31 0.28 0.35 0.48 0.45 0.25 0.09 0.02 0.00 0.00 0.00 0.00 0.00 0.00 0.01 0.03 0.02 0.00 0.00 0.00 0.00 0.00 0.00 0.00 0.00 0.00 0.00 0.00 0.00 0.00 0.00 0.00 0.00 0.00 0.00 0.00 0.00 0.00 0.00
0.00 0.00 0.00 0.00 0.00 0.00 0.00 0.00 0.00 0.03 0.09 0.16 0.23 0.32 0.61 0.61 0.46 0.49 0.41 0.22 0.09 0.01 0.00 0.00 0.00 0.00 0.00 0.00 0.01 0.06 0.09 0.09 0.02 0.00 0.00 0.00 0.00 0.00 0.00 0.00 0.00 0.00 0.00 0.00 0.00 0.00 0.00 0.00 0.00 0.00 0.00 0.00 0.00 0.00
0.01 0.01 0.01 0.00 0.00 0.00 0.00 0.00 0.00 0.04 0.07 0.18 0.31 0.42 0.49 0.46 0.40 0.36 0.21 0.05 0.00 0.00 0.00 0.00 0.00 0.00 0.00 0.01 0.08 0.16 0.15 0.07 0.01 0.00 0.00 0.00 0.00 0.00 0.00 0.00 0.00 0.00 0.00 0.00 0.00 0.00 0.00 0.00 0.00 0.00 0.00 0.00 0.00 0.00
0.01 0.01 0.01 0.01 0.01 0.00 0.00 0.00 0.00 0.06 0.18 0.28 0.33 0.35 0.33 0.31 0.18 0.10 0.01 0.00 0.00 0.00 0.00 0.00 0.00 0.00 0.02 0.05 0.15 0.14 0.08 0.02 0.01 0.00 0.00 0.00 0.00 0.00 0.00 0.00 0.00 0.00 0.00 0.00 0.00 0.00 0.00 0.00 0.00 0.00 0.00 0.00 0.00 0.00
0.02 0.02 0.02 0.02 0.01 0.00 0.00 0.01 0.02 0.11 0.24 0.35 0.40 0.27 0.18 0.07 0.01 0.00 0.00 0.00 0.00 0.00 0.00 0.00 0.01 0.03 0.05 0.11 0.12 0.06 0.06 0.01 0.00 0.00 0.00 0.00 0.00 0.00 0.00 0.00 0.00 0.00 0.00 0.00 0.00 0.00 0.00 0.00 0.00 0.00 0.00 0.00 0.00 0.00
0.02 0.04 0.02 0.00 0.00 0.00 0.00 0.02 0.05 0.17 0.34 0.37 0.32 0.30 0.16 0.04 0.00 0.00 0.00 0.00 0.00 0.00 0.00 0.00 0.02 0.09 0.11 0.07 0.05 0.01 0.00 0.00 0.00 0.00 0.00 0.00 0.00 0.00 0.00 0.00 0.00 0.00 0.00 0.00 0.00 0.00 0.00 0.00 0.00 0.00 0.00 0.00 0.00 0.00
0.05 0.03 0.00 0.00 0.00 0.01 0.03 0.09 0.11 0.20 0.31 0.41 0.27 0.08 0.03 0.01 0.00 0.00 0.00 0.00 0.00 0.00 0.00 0.00 0.03 0.04 0.04 0.03 0.01 0.00 0.00 0.00 0.00 0.00 0.00 0.00 0.00 0.00 0.00 0.00 0.00 0.00 0.00 0.00 0.00 0.00 0.00 0.00 0.00 0.00 0.00 0.00 0.00 0.00
0.04 0.00 0.00 0.00 0.02 0.04 0.04 0.07 0.16 0.23 0.20 0.15 0.10 0.06 0.01 0.00 0.00 0.00 0.00 0.00 0.00 0.00 0.00 0.00 0.01 0.07 0.05 0.01 0.00 0.00 0.00 0.00 0.00 0.00 0.00 0.00 0.00 0.00 0.00 0.00 0.00 0.00 0.00 0.00 0.00 0.00 0.00 0.00 0.00 0.00 0.00 0.00 0.00 0.00
0.01 0.00 0.00 0.01 0.07 0.13 0.12 0.08 0.10 0.16 0.08 0.02 0.01 0.00 0.00 0.00 0.00 0.00 0.00 0.00 0.00 0.00 0.00 0.01 0.08 0.12 0.02 0.00 0.00 0.00 0.00 0.00 0.00 0.00 0.00 0.00 0.00 0.00 0.00 0.00 0.00 0.00 0.00 0.00 0.00 0.00 0.00 0.00 0.00 0.00 0.00 0.00 0.00 0.00
0.04 0.03 0.03 0.04 0.11 0.18 0.24 0.16 0.14 0.14 0.07 0.02 0.00 0.00 0.00 0.00 0.00 0.00 0.00 0.00 0.00 0.01 0.07 0.14 0.09 0.01 0.00 0.00 0.00 0.00 0.00 0.00 0.00 0.00 0.00 0.00 0.00 0.00 0.00 0.00 0.00 0.00 0.00 0.00 0.00 0.00 0.00 0.00 0.00 0.00 0.00 0.00 0.00 0.00
0.05 0.02 0.02 0.08 0.10 0.12 0.17 0.10 0.07 0.04 0.03 0.02 0.01 0.00 0.01 0.01 0.01 0.01 0.01 0.00 0.07 0.18 0.14 0.04 0.00 0.00 0.00 0.00 0.00 0.00 0.00 0.00 0.00 0.00 0.00 0.00 0.00 0.00 0.00 0.00 0.00 0.00 0.00 0.00 0.00 0.00 0.00 0.00 0.00 0.00 0.00 0.00 0.00 0.00
0.02 0.03 0.06 0.07 0.11 0.14 0.14 0.06 0.03 0.03 0.04 0.03 0.02 0.02 0.04 0.04 0.04 0.03 0.04 0.13 0.15 0.06 0.01 0.00 0.00 0.00 0.00 0.00 0.00 0.00 0.00 0.00 0.00 0.00 0.00 0.00 0.00 0.00 0.00 0.00 0.00 0.00 0.00 0.00 0.00 0.00 0.00 0.00 0.00 0.00 0.00 0.00 0.00 0.00
0.06 0.08 0.12 0.14 0.20 0.21 0.11 0.06 0.06 0.06 0.07 0.07 0.06 0.07 0.08 0.05 0.03 0.01 0.07 0.07 0.03 0.00 0.00 0.00 0.00 0.00 0.00 0.00 0.00 0.00 0.00 0.00 0.00 0.00 0.00 0.00 0.00 0.00 0.00 0.00 0.00 0.00 0.00 0.00 0.00 0.00 0.00 0.00 0.00 0.00 0.00 0.00 0.00 0.01
0.09 0.11 0.14 0.14 0.16 0.12 0.09 0.09 0.08 0.07 0.07 0.07 0.07 0.08 0.05 0.04 0.06 0.04 0.02 0.00 0.00 0.00 0.00 0.00 0.00 0.00 0.00 0.00 0.00 0.00 0.00 0.00 0.00 0.00 0.00 0.00 0.00 0.00 0.00 0.00 0.00 0.00 0.00 0.00 0.00 0.00 0.00 0.00 0.00 0.00 0.01 0.04 0.04 0.03
0.17 0.13 0.12 0.11 0.08 0.07 0.05 0.03 0.04 0.05 0.04 0.04 0.03 0.03 0.03 0.04 0.04 0.02 0.01 0.00 0.00 0.00 0.00 0.00 0.00 0.00 0.00 0.00 0.00 0.00 0.00 0.00 0.00 0.00 0.00 0.00 0.00 0.00 0.00 0.00 0.00 0.00 0.00 0.00 0.00 0.00 0.00 0.01 0.01 0.02 0.04 0.05 0.06 0.08
0.25 0.07 0.08 0.02 0.02 0.02 0.01 0.01 0.01 0.01 0.01 0.01 0.01 0.01 0.02 0.01 0.01 0.00 0.00 0.00 0.00 0.00 0.00 0.00 0.00 0.00 0.00 0.00 0.00 0.00 0.00 0.00 0.00 0.00 0.00 0.00 0.00 0.00 0.00 0.00 0.00 0.00 0.00 0.00 0.00 0.00 0.02 0.05 0.06 0.09 0.11 0.12 0.10 0.07
0.14 0.07 0.05 0.01 0.01 0.01 0.01 0.01 0.01 0.02 0.03 0.03 0.02 0.02 0.03 0.06 0.03 0.00 0.00 0.00 0.00 0.00 0.00 0.00 0.00 0.00 0.00 0.00 0.00 0.00 0.00 0.00 0.00 0.00 0.00 0.00 0.00 0.00 0.00 0.00 0.00 0.00 0.00 0.00 0.00 0.01 0.02 0.04 0.06 0.08 0.10 0.08 0.04 0.02
0.07 0.03 0.03 0.01 0.00 0.00 0.02 0.03 0.04 0.04 0.03 0.01 0.01 0.02 0.03 0.03 0.01 0.00 0.00 0.00 0.00 0.00 0.00 0.00 0.00 0.00 0.00 0.00 0.00 0.00 0.00 0.00 0.00 0.00 0.00 0.00 0.00 0.00 0.00 0.00 0.00 0.00 0.00 0.00 0.00 0.01 0.03 0.04 0.04 0.05 0.04 0.02 0.01 0.01
0.02 0.01 0.01 0.04 0.05 0.06 0.05 0.03 0.02 0.00 0.00 0.00 0.01 0.01 0.00 0.00 0.00 0.00 0.00 0.00 0.00 0.00 0.00 0.00 0.00 0.00 0.00 0.00 0.00 0.00 0.00 0.00 0.00 0.00 0.00 0.00 0.00 0.00 0.00 0.00 0.00 0.00 0.00 0.00 0.01 0.02 0.02 0.03 0.03 0.02 0.02 0.01 0.01 0.01
0.01 0.03 0.05 0.05 0.03 0.02 0.01 0.01 0.00 0.00 0.00 0.00 0.00 0.00 0.00 0.00 0.00 0.00 0.00 0.00 0.00 0.00 0.00 0.00 0.00 0.00 0.00 0.00 0.00 0.00 0.00 0.00 0.00 0.00 0.00 0.00 0.00 0.00 0.00 0.00 0.00 0.00 0.00 0.00 0.02 0.06 0.06 0.04 0.03 0.02 0.02 0.02 0.02 0.02
0.01 0.03 0.03 0.02 0.01 0.00 0.00 0.00 0.00 0.00 0.00 0.00 0.00 0.00 0.00 0.00 0.00 0.00 0.00 0.00 0.00 0.00 0.00 0.00 0.00 0.00 0.00 0.00 0.00 0.00 0.00 0.00 0.00 0.01 0.00 0.01 0.02 0.02 0.02 0.02 0.01 0.01 0.02 0.01 0.00 0.00 0.01 0.01 0.01 0.02 0.02 0.02 0.01 0.00
0.01 0.01 0.01 0.00 0.00 0.00 0.00 0.00 0.00 0.00 0.00 0.00 0.00 0.00 0.00 0.00 0.00 0.00 0.00 0.00 0.00 0.00 0.00 0.00 0.00 0.00 0.00 0.00 0.00 0.00 0.00 0.00 0.01 0.01 0.01 0.02 0.02 0.03 0.03 0.03 0.03 0.02 0.02 0.01 0.01 0.01 0.01 0.01 0.02 0.02 0.02 0.01 0.00 0.00
0.00 0.00 0.00 0.00 0.00 0.00 0.00 0.00 0.00 0.00 0.00 0.00 0.00 0.00 0.00 0.00 0.00 0.00 0.00 0.00 0.00 0.00 0.00 0.00 0.00 0.00 0.00 0.00 0.00 0.00 0.00 0.00 0.00 0.00 0.01 0.02 0.02 0.03 0.03 0.02 0.01 0.02 0.02 0.02 0.02 0.01 0.02 0.01 0.01 0.00 0.00 0.00 0.00 0.00
MSLP
1017.95 1017.96 1017.87 1017.88 1017.91 1017.93 1017.88 1017.90 1017.77 1017.56 1017.81 1018.11 1018.47 1018.87 1019.07 1019.63 1020.07 1020.74 1021.22 1021.28 1021.64 1022.09 1021.08 1020.40 1020.52 1020.92 1021.08 1021.27 1021.69 1022.28 1022.87 1023.10 1023.66 1023.87 1024.08 1024.13 1024.06 1023.31 1023.08 1022.38 1022.13 1022.26 1022.54 1022.29 1021.57 1019.86 1016.94 1015.05 1015.79 1015.35 1013.37 1013.54 1013.83 1014.57
1017.23 1017.11 1017.01 1017.11 1017.04 1017.06 1016.97 1016.93 1016.92 1017.01 1016.91 1017.13 1017.36 1017.80 1018.28 1018.80 1019.35 1019.99 1020.94 1020.95 1021.13 1021.54 1020.62 1019.94 1019.48 1019.02 1019.33 1019.38 1020.03 1021.33 1021.62 1021.69 1021.98 1023.07 1023.89 1023.71 1023.49 1023.58 1022.96 1022.05 1020.71 1020.66 1019.00 1018.71 1018.21 1015.41 1013.40 1013.33 1012.41 1012.10 1012.34 1012.71 1013.16 1013.49
1016.50 1016.40 1016.47 1016.30 1016.23 1015.99 1015.93 1015.95 1015.91 1015.92 1015.96 1016.14 1016.42 1016.72 1017.15 1017.64 1018.35 1019.13 1019.88 1020.51 1021.08 1021.15 1020.14 1019.92 1018.91 1018.44 1018.57 1018.78 1018.74 1019.96 1021.22 1021.02 1021.66 1021.83 1022.73 1023.14 1022.94 1022.17 1021.97 1020.71 1019.47 1018.27 1017.69 1017.56 1016.68 1012.60 1012.48 1012.35 1011.67 1011.84 1011.96 1011.88 1012.01 1012.34
1015.80 1015.83 1015.44 1015.53 1015.33 1015.16 1015.00 1014.97 1015.03 1015.02 1015.11 1015.05 1015.44 1015.73 1016.12 1016.68 1017.23 1018.01 1018.96 1019.33 1019.59 1020.14 1020.21 1018.41 1018.16 1018.32 1018.11 1018.39 1018.76 1019.05 1019.80 1020.94 1021.56 1022.08 1022.54 1022.81 1022.51 1021.06 1020.19 1019.04 1018.27 1016.53 1016.79 1015.69 1014.28 1011.85 1011.97 1011.30 1010.97 1010.42 1010.81 1011.28 1011.73 1011.91
1015.09 1015.14 1014.89 1014.60 1014.40 1014.12 1014.04 1013.99 1014.09 1014.07 1014.10 1014.14 1014.24 1014.59 1015.04 1015.58 1016.41 1017.24 1017.94 1018.34 1018.34 1019.06 1019.09 1018.44 1018.02 1017.63 1017.84 1017.96 1018.57 1019.18 1019.80 1020.82 1021.75 1022.33 1022.61 1022.25 1021.31 1021.00 1019.91 1019.04 1015.37 1014.54 1013.11 1013.23 1010.93 1009.55 1009.94 1009.32 1008.99 1009.20 1010.08 1010.35 1010.28 1011.09
1014.27 1014.33 1014.35 1014.14 1013.77 1013.49 1013.36 1013.01 1013.06 1013.15 1013.22 1013.15 1013.47 1013.43 1013.74 1014.45 1015.62 1017.06 1017.94 1017.53 1017.80 1018.11 1018.98 1018.60 1017.66 1017.92 1018.39 1018.41 1018.53 1018.97 1019.69 1020.54 1021.30 1021.77 1021.75 1020.87 1020.14 1020.01 1019.15 1016.31 1010.66 1010.66 1010.28 1009.65 1008.54 1008.24 1008.62 1008.15 1008.44 1008.75 1009.40 1009.45 1009.38 1009.91
1013.61 1013.62 1013.59 1013.30 1013.04 1013.05 1012.99 1012.53 1012.40 1011.99 1012.15 1012.36 1012.46 1012.48 1012.65 1013.04 1014.09 1014.95 1015.39 1014.84 1015.83 1017.43 1018.44 1018.47 1017.85 1018.28 1018.58 1018.96 1019.42 1019.62 1020.20 1020.00 1020.49 1021.09 1021.08 1020.48 1019.89 1019.52 1017.69 1013.91 1008.61 1008.87 1008.59 1008.31 1007.88 1008.33 1008.49 1007.84 1007.76 1007.72 1008.41 1008.71 1009.09 1009.48
1012.78 1012.89 1012.87 1012.67 1012.46 1012.43 1012.54 1012.25 1012.08 1011.64 1011.46 1011.33 1011.53 1011.52 1011.52 1011.82 1012.83 1013.78 1014.51 1014.67 1015.49 1017.17 1017.62 1017.65 1017.17 1018.37 1018.44 1018.74 1019.18 1019.21 1019.80 1020.25 1020.01 1019.76 1019.87 1019.68 1019.29 1018.36 1014.59 1007.73 1007.99 1007.22 1007.43 1007.53 1007.09 1007.20 1006.73 1006.36 1007.24 1007.46 1007.86 1008.29 1008.91 1009.07
1011.93 1012.08 1012.10 1012.09 1011.89 1011.67 1011.78 1011.85 1011.67 1011.27 1011.11 1010.87 1010.86 1010.64 1010.45 1011.29 1011.99 1012.68 1013.65 1014.54 1014.93 1015.99 1016.39 1016.14 1016.00 1016.91 1017.41 1018.03 1018.49 1018.84 1019.14 1019.75 1019.48 1019.30 1018.83 1018.33 1016.75 1013.98 1008.36 1007.18 1006.68 1005.88 1006.45 1006.04 1006.12 1006.31 1006.63 1006.89 1006.73 1007.06 1007.37 1007.62 1007.98 1007.98
1011.44 1011.28 1011.05 1011.20 1011.25 1011.36 1011.37 1011.14 1011.40 1010.86 1010.78 1010.58 1010.53 1010.87 1011.46 1011.99 1011.69 1012.66 1013.55 1014.29 1015.11 1014.95 1014.93 1014.33 1014.40 1016.21 1016.85 1017.14 1018.03 1018.53 1018.59 1018.39 1018.43 1017.56 1017.64 1016.67 1012.22 1008.17 1006.66 1005.20 1005.29 1004.70 1005.15 1005.67 1006.20 1005.91 1006.00 1006.14 1006.10 1006.41 1006.71 1006.54 1006.66 1006.73
1010.39 1010.42 1010.39 1010.36 1010.66 1010.60 1010.96 1010.58 1010.71 1010.34 1010.14 1010.35 1010.91 1010.88 1011.47 1011.77 1012.10 1012.16 1012.59 1013.22 1013.81 1013.71 1012.32 1011.88 1012.64 1014.15 1015.81 1016.14 1016.72 1016.99 1017.25 1017.49 1017.56 1016.45 1016.63 1014.33 1009.83 1006.01 1004.29 1003.73 1002.94 1003.56 1004.16 1004.53 1004.71 1004.49 1004.76 1004.93 1005.01 1005.61 1005.88 1006.04 1006.03 1006.01
1009.29 1009.39 1009.56 1009.49 1009.90 1010.06 1010.04 1010.02 1010.26 1010.19 1009.83 1010.06 1010.66 1010.98 1011.67 1011.83 1011.35 1011.16 1011.33 1011.30 1011.45 1010.77 1010.13 1010.05 1010.57 1011.74 1013.85 1014.38 1015.06 1015.96 1016.05 1016.52 1015.92 1015.50 1015.95 1012.17 1006.77 1003.94 1003.50 1002.95 1003.29 1002.93 1003.25 1003.51 1003.74 1003.69 1004.00 1004.23 1004.53 1004.75 1005.07 1005.11 1005.49 1005.37
1008.20 1008.39 1008.54 1008.67 1008.86 1009.09 1009.16 1009.28 1009.45 1009.44 1009.58 1010.49 1010.97 1010.69 1010.48 1010.29 1010.08 1008.90 1008.81 1008.77 1008.40 1007.90 1007.93 1008.89 1010.21 1011.09 1012.70 1013.09 1013.96 1014.56 1014.85 1014.94 1014.82 1014.58 1012.02 1007.04 1004.59 1003.72 1003.25 1002.97 1003.02 1002.86 1002.84 1003.00 1003.22 1003.49 1003.66 1003.59 1004.12 1004.29 1004.53 1004.73 1004.87 1004.98
1007.31 1007.40 1007.47 1007.68 1007.94 1008.03 1008.14 1008.47 1008.61 1008.83 1009.25 1009.76 1009.47 1008.92 1008.74 1007.71 1006.97 1006.48 1005.72 1005.07 1004.87 1005.14 1006.06 1007.45 1009.19 1009.83 1010.65 1011.87 1012.49 1012.71 1012.70 1013.29 1013.32 1011.61 1007.07 1003.98 1002.22 1001.92 1002.41 1002.46 1002.88 1002.57 1002.40 1002.20 1002.78 1003.17 1003.26 1003.27 1003.31 1003.46 1003.66 1003.97 1004.61 1005.19
1006.16 1006.32 1006.48 1006.70 1006.93 1007.12 1007.38 1007.53 1007.74 1008.04 1008.02 1008.33 1008.08 1006.01 1005.42 1005.40 1005.18 1004.75 1004.51 1005.00 1004.63 1004.32 1005.12 1007.31 1008.21 1008.43 1009.33 1009.95 1010.06 1010.52 1011.37 1010.44 1008.34 1005.53 1004.42 1002.08 1001.52 1001.96 1001.96 1002.21 1002.73 1002.40 1002.52 1002.41 1002.42 1002.90 1003.29 1003.55 1003.25 1003.43 1003.43 1003.57 1004.10 1005.07
1005.15 1005.39 1005.56 1005.68 1005.88 1006.03 1006.27 1006.49 1006.65 1006.86 1006.49 1006.74 1005.56 1004.91 1003.92 1003.57 1004.24 1004.57 1003.87 1004.32 1004.31 1004.61 1005.12 1005.57 1006.48 1007.04 1006.82 1006.86 1007.21 1007.50 1007.54 1005.32 1003.38 1002.54 1001.02 1000.77 1001.09 1001.74 1001.60 1001.82 1002.11 1002.15 1001.88 1002.20 1002.36 1002.32 1002.78 1003.41 1003.34 1003.29 1003.42 1003.59 1003.90 1004.30
1004.15 1004.26 1004.24 1004.54 1004.75 1005.02 1005.30 1005.82 1005.73 1005.42 1005.01 1004.58 1003.51 1003.05 1002.78 1002.91 1002.30 1002.37 1002.81 1003.08 1003.49 1003.53 1003.25 1003.93 1004.20 1003.72 1004.02 1004.26 1004.50 1004.05 1002.02 1000.01 1000.08 999.86 1000.04 1000.18 1000.54 1001.33 1001.12 1001.56 1001.73 1001.88 1001.95 1002.45 1002.21 1002.43 1002.88 1003.26 1003.34 1003.41 1003.54 1003.67 1003.92 1004.34
1003.03 1003.00 1003.22 1003.55 1003.98 1004.34 1004.60 1004.67 1004.79 1004.15 1003.55 1002.88 1002.71 1001.42 1001.30 1000.72 1000.54 1000.11 1001.07 1001.49 1002.10 1001.93 1001.56 1000.79 1000.91 1001.59 1001.50 1001.71 1000.14 998.45 999.20 999.26 999.06 998.86 999.18 999.77 1000.18 1000.58 1000.78 1001.18 1001.55 1001.80 1002.16 1002.22 1002.25 1002.48 1002.73 1003.29 1003.51 1003.55 1003.39 1003.64 1004.11 1004.54
1001.90 1002.12 1002.41 1002.73 1003.27 1003.85 1003.90 1003.48 1003.33 1002.68 1001.43 1000.93 1000.31 1000.09 999.81 999.06 998.60 998.28 998.94 999.46 999.32 999.43 999.85 999.68 999.50 999.04 998.82 997.71 997.03 997.41 997.71 997.91 998.10 998.33 998.39 998.92 999.73 1000.40 1000.35 1000.96 1001.37 1001.92 1002.06 1002.30 1002.57 1002.51 1002.55 1002.86 1003.10 1003.23 1003.20 1003.48 1004.30 1004.59
1000.75 1001.16 1001.55 1001.84 1002.31 1002.83 1002.71 1002.21 1001.99 1001.27 1000.05 999.60 999.18 998.70 998.16 997.46 996.81 997.07 997.29 998.24 998.88 999.01 998.44 997.92 996.89 995.75 995.57 994.63 995.67 995.69 995.82 996.19 997.14 997.71 997.83 998.60 999.43 1000.26 1000.06 1000.41 1001.15 1001.51 1001.52 1001.73 1002.19 1002.47 1002.53 1002.52 1002.64 1002.78 1002.92 1003.18 1003.89 1004.43
1000.04 1000.20 1000.61 1000.87 1001.36 1001.64 1001.23 1000.50 1000.15 999.53 998.69 998.52 997.59 997.57 997.12 996.66 996.55 996.44 996.37 996.75 997.43 996.53 995.87 994.94 993.99 993.43 994.46 994.57 994.57 994.83 995.36 995.74 996.32 996.29 996.40 997.58 998.50 999.01 999.63 1000.10 1000.67 1001.27 1001.47 1001.51 1001.78 1001.96 1001.87 1001.52 1001.78 1002.15 1002.58 1003.15 1003.53 1004.04
999.24 999.51 1000.02 999.97 1000.18 1000.01 999.53 998.71 998.64 998.22 998.31 997.17 997.00 996.38 995.79 995.35 994.98 994.94 995.29 995.64 994.81 993.44 992.33 992.13 992.88 993.84 994.25 994.54 994.39 994.42 994.68 995.24 996.02 996.42 996.43 996.91 998.22 998.86 999.43 999.85 1000.70 1000.76 1000.71 1000.50 1000.53 1000.69 1000.83 1001.04 1001.33 1001.64 1002.21 1002.81 1003.51 1003.98
998.49 998.90 999.46 999.42 999.16 998.45 997.53 997.31 997.39 996.85 996.88 995.90 995.33 995.07 994.52 993.90 993.49 994.03 994.23 993.26 991.76 990.75 991.11 992.02 992.31 992.76 993.23 993.68 993.92 994.32 994.48 994.82 995.61 995.74 995.85 996.26 996.89 997.65 998.49 999.07 999.37 999.45 999.50 999.38 999.54 999.90 1000.23 1000.55 1000.98 1001.43 1001.95 1002.61 1003.40 1004.06
997.58 998.33 998.23 997.78 997.32 996.39 996.15 995.97 995.62 995.17 994.64 994.45 994.15 993.64 993.30 993.11 993.13 993.18 992.27 991.27 990.68 990.87 990.88 991.04 991.67 992.49 993.06 993.38 993.58 993.69 993.88 994.27 994.66 995.15 995.35 996.22 996.91 996.99 997.25 997.65 997.99 998.10 998.11 998.25 998.84 999.35 999.74 1000.05 1000.60 1001.24 1001.76 1002.50 1003.13 1003.84
997.46 996.99 996.65 995.47 995.03 995.23 995.01 994.85 994.37 994.17 993.39 993.21 993.46 993.29 993.06 992.99 992.84 992.27 991.48 990.86 990.75 990.18 990.10 990.33 990.55 990.78 991.30 991.62 992.14 992.70 992.82 993.25 993.70 994.26 994.57 995.26 995.48 996.38 996.73 996.84 997.14 997.13 997.44 997.97 998.23 998.50 999.18 999.64 1000.12 1000.83 1001.49 1002.16 1002.86 1003.90
995.47 994.22 993.69 992.96 993.66 994.19 993.81 994.00 993.58 993.39 993.27 993.18 993.09 992.87 992.81 992.76 992.49 991.29 990.43 989.70 989.45 989.01 988.83 988.63 988.59 989.18 989.85 990.08 990.47 990.83 990.93 991.84 992.57 993.49 993.52 993.91 994.44 994.87 995.45 996.03 996.34 996.45 996.50 996.32 996.85 997.68 998.41 998.98 999.73 1000.42 1001.19 1002.03 1002.80 1003.82
992.77 991.97 992.11 992.38 992.63 992.75 993.05 992.78 992.56 992.52 992.53 992.46 992.56 992.81 992.59 992.18 991.25 990.08 988.90 988.66 988.69 988.23 987.95 987.63 988.00 988.57 988.82 989.42 989.62 989.98 990.58 991.21 991.99 992.25 992.13 992.59 992.99 993.32 993.57 994.21 994.77 994.70 994.90 995.44 995.97 996.65 997.43 998.50 999.50 1000.24 1001.07 1002.14 1003.05 1003.70
991.29 991.25 991.71 991.97 992.19 991.67 991.85 991.92 991.61 991.24 990.92 991.05 991.79 991.74 991.21 990.50 989.49 988.75 988.86 989.26 989.33 989.18 988.97 988.83 988.56 988.72 989.24 989.51 989.73 990.31 991.12 991.72 992.03 992.17 992.42 992.79 992.92 992.96 993.31 993.62 993.80 994.02 994.36 994.93 995.74 996.53 997.30 998.19 999.25 1000.23 1001.01 1002.12 1003.36 1004.35
990.87 990.83 991.33 991.61 991.91 991.42 991.11 990.84 990.49 989.92 989.72 990.28 990.54 990.25 989.93 989.17 989.05 989.36 989.74 989.91 990.09 989.97 990.14 989.98 989.83 989.51 989.75 990.02 990.13 990.42 990.83 991.11 991.56 991.94 992.21 992.53 993.02 993.29 993.30 993.43 993.70 994.02 994.49 995.18 995.96 996.68 997.47 998.30 999.33 1000.19 1001.24 1002.41 1003.67 1004.73
989.93 990.04 990.85 990.94 990.89 990.56 990.60 990.91 990.75 990.59 990.57 990.56 990.59 990.23 989.86 989.55 989.48 989.72 990.12 990.51 990.93 990.79 990.58 990.08 989.62 989.63 989.97 990.15 990.33 990.52 990.47 990.53 990.71 991.06 991.52 991.92 992.05 992.33 992.75 993.14 993.58 994.01 994.75 995.57 996.41 997.29 998.08 999.14 1000.20 1001.19 1002.22 1003.39 1004.37 1005.38
989.50 990.11 990.55 990.55 990.71 991.03 991.33 991.56 991.59 991.58 991.57 991.46 991.31 991.39 990.92 990.41 989.63 989.67 990.02 990.28 990.61 990.76 990.37 990.01 989.98 989.95 989.97 989.97 990.07 990.35 990.57 990.63 990.64 990.64 990.79 990.89 991.33 991.80 992.42 993.08 993.62 994.33 995.12 995.84 996.65 997.75 998.70 999.66 1000.43 1001.48 1002.68 1003.76 1004.86 1005.77
989.41 989.86 990.39 990.88 991.23 991.52 991.78 991.99 992.03 992.11 992.12 991.84 991.65 991.57 991.22 991.11 990.59 989.73 989.53 990.09 990.77 990.73 990.14 990.03 990.24 990.30 990.36 990.29 990.09 990.23 989.92 989.83 990.16 990.41 990.80 991.13 991.47 991.92 992.51 993.26 993.99 994.69 995.46 996.43 997.54 998.58 999.28 1000.02 1000.95 1001.97 1003.16 1004.31 1005.37 1006.20
989.93 990.31 990.71 991.03 991.40 991.70 991.89 991.94 992.36 992.24 992.10 992.22 992.18 992.41 992.34 992.16 991.16 989.79 989.89 990.04 990.38 990.28 990.18 990.12 990.21 990.16 990.20 990.31 990.36 990.47 990.23 990.01 990.09 990.45 990.81 991.11 991.52 992.17 992.92 993.63 994.42 995.20 996.16 997.16 998.13 998.95 999.79 1000.45 1001.52 1002.64 1003.75 1004.80 1005.79 1006.73
Thickness
5565 5568 5570 5573 5575 5577 5579 5580 5582 5584 5581 5578 5575 5571 5569 5563 5558 5554 5550 5549 5544 5537 5545 5551 5551 5540 5536 5533 5538 5528 5528 5519 5510 5514 5507 5498 5508 5514 5514 5522 5521 5529 5499 5497 5486 5489 5552 5555 5550 5565 5583 5570 5570 5556
5554 5555 5559 5561 5564 5565 5568 5569 5573 5573 5576 5573 5572 5568 5563 5558 5552 5547 5541 5540 5539 5534 5544 5546 5550 5551 5549 5546 5534 5518 5532 5523 5522 5513 5490 5487 5504 5468 5503 5525 5518 5519 5542 5545 5541 5568 5578 5564 5583 5579 5574 5578 5569 5565
5538 5544 5545 5549 5551 5555 5559 5560 5563 5564 5565 5565 5564 5561 5559 5555 5548 5542 5537 5533 5527 5525 5533 5535 5544 5545 5545 5543 5544 5530 5515 5521 5516 5509 5495 5502 5515 5499 5502 5498 5527 5528 5524 5531 5544 5584 5570 5569 5574 5567 5568 5571 5573 5569
5517 5520 5530 5532 5536 5540 5543 5546 5550 5554 5555 5555 5553 5551 5549 5545 5541 5537 5531 5527 5526 5522 5524 5540 5538 5536 5536 5534 5533 5531 5524 5511 5504 5499 5488 5489 5504 5509 5517 5528 5525 5541 5522 5527 5532 5565 5561 5571 5569 5576 5574 5569 5564 5564
5493 5497 5504 5513 5521 5526 5529 5531 5533 5538 5541 5544 5544 5540 5538 5535 5528 5522 5520 5520 5518 5516 5517 5523 5528 5532 5529 5526 5521 5516 5513 5504 5495 5487 5481 5494 5499 5495 5494 5496 5530 5532 5549 5547 5580 5590 5586 5594 5588 5578 5568 5567 5570 5562
5471 5476 5479 5484 5495 5505 5510 5517 5519 5520 5523 5529 5527 5530 5527 5522 5511 5501 5502 5511 5508 5505 5498 5510 5517 5516 5510 5510 5509 5506 5501 5493 5487 5484 5486 5491 5495 5492 5485 5509 5590 5566 5570 5582 5597 5591 5577 5589 5581 5573 5568 5566 5565 5559
5442 5449 5457 5465 5472 5476 5483 5491 5498 5506 5509 5510 5510 5513 5514 5508 5496 5495 5501 5514 5502 5488 5481 5490 5502 5497 5495 5493 5489 5487 5480 5485 5480 5478 5477 5486 5489 5480 5482 5542 5596 5568 5570 5575 5579 5572 5570 5568 5582 5571 5566 5566 5563 5554
5415 5420 5429 5439 5445 5452 5455 5464 5470 5479 5486 5493 5494 5496 5497 5489 5480 5481 5483 5486 5484 5470 5472 5482 5497 5483 5482 5481 5480 5476 5472 5468 5472 5476 5472 5477 5477 5479 5512 5593 5581 5585 5583 5581 5574 5569 5583 5590 5572 5566 5561 5556 5549 5547
5393 5397 5402 5410 5417 5427 5431 5437 5444 5451 5457 5464 5470 5477 5477 5462 5466 5472 5467 5459 5461 5458 5457 5478 5497 5491 5474 5473 5470 5461 5462 5461 5462 5464 5468 5473 5485 5503 5571 5570 5571 5574 5566 5571 5572 5570 5562 5558 5563 5556 5550 5546 5548 5549
5370 5377 5385 5390 5392 5399 5407 5415 5417 5427 5432 5436 5443 5445 5434 5445 5455 5450 5436 5432 5430 5442 5453 5479 5483 5472 5463 5462 5459 5455 5449 5461 5456 5470 5461 5467 5512 5565 5571 5573 5569 5574 5565 5558 5554 5552 5551 5547 5549 5550 5544 5551 5549 5552
5356 5360 5366 5370 5373 5380 5383 5391 5396 5403 5413 5418 5413 5420 5423 5422 5425 5425 5416 5417 5417 5438 5462 5480 5485 5465 5452 5458 5450 5450 5446 5446 5439 5456 5452 5468 5511 5549 5568 5572 5577 5575 5569 5558 5559 5566 5561 5554 5558 5547 5539 5538 5540 5540
5339 5344 5348 5354 5355 5360 5366 5371 5372 5379 5391 5393 5396 5398 5392 5387 5402 5405 5401 5408 5426 5453 5461 5478 5486 5476 5450 5449 5445 5437 5438 5430 5449 5441 5442 5478 5537 5552 5551 5553 5552 5556 5552 5549 5549 5554 5551 5546 5542 5542 5537 5535 5530 5532
5326 5329 5333 5337 5342 5344 5348 5353 5357 5363 5366 5365 5362 5370 5370 5376 5385 5391 5401 5419 5438 5446 5470 5472 5468 5456 5438 5439 5435 5429 5428 5431 5427 5436 5462 5515 5535 5537 5527 5540 5542 5544 5543 5542 5543 5540 5538 5539 5533 5532 5529 5524 5523 5521
5312 5317 5322 5325 5326 5330 5335 5338 5342 5345 5342 5341 5349 5357 5358 5371 5381 5394 5420 5443 5456 5465 5469 5467 5442 5446 5438 5434 5426 5428 5430 5419 5424 5439 5485 5526 5539 5545 5534 5534 5530 5538 5542 5542 5536 5531 5529 5529 5528 5526 5521 5517 5511 5504
5304 5308 5311 5313 5315 5318 5319 5323 5327 5327 5325 5326 5333 5356 5359 5375 5380 5393 5400 5413 5428 5453 5454 5439 5431 5432 5428 5429 5430 5427 5413 5429 5461 5499 5505 5521 5527 5525 5523 5521 5512 5523 5520 5523 5524 5519 5515 5512 5514 5514 5512 5509 5503 5493
5295 5297 5299 5303 5306 5308 5310 5312 5315 5314 5311 5312 5325 5348 5361 5371 5372 5367 5397 5395 5418 5426 5426 5420 5417 5419 5426 5436 5428 5426 5425 5461 5495 5496 5513 5512 5511 5504 5510 5509 5509 5509 5512 5509 5508 5510 5506 5499 5500 5501 5498 5496 5492 5488
5287 5290 5297 5297 5298 5298 5299 5296 5300 5302 5308 5312 5328 5347 5366 5368 5385 5397 5390 5400 5409 5413 5417 5415 5417 5427 5426 5422 5424 5441 5466 5515 5505 5500 5496 5497 5500 5495 5497 5496 5498 5499 5499 5486 5493 5495 5490 5485 5484 5485 5486 5483 5480 5476
5283 5289 5290 5289 5287 5286 5286 5284 5287 5292 5301 5317 5325 5353 5353 5373 5386 5395 5390 5396 5398 5408 5421 5423 5428 5415 5422 5418 5447 5515 5476 5482 5486 5492 5489 5484 5481 5483 5484 5487 5487 5484 5477 5477 5474 5472 5468 5465 5470 5471 5468 5464 5459 5455
5280 5281 5281 5281 5279 5273 5275 5283 5284 5291 5313 5328 5334 5331 5354 5369 5377 5397 5394 5399 5409 5411 5403 5408 5412 5415 5430 5453 5490 5460 5474 5480 5487 5477 5476 5473 5471 5468 5472 5464 5462 5460 5461 5457 5453 5458 5460 5456 5456 5455 5454 5451 5445 5440
5277 5276 5275 5276 5275 5269 5272 5280 5283 5296 5302 5319 5317 5341 5359 5375 5391 5389 5397 5393 5395 5394 5396 5398 5423 5445 5467 5498 5464 5474 5483 5480 5468 5464 5469 5462 5456 5449 5458 5455 5451 5449 5454 5449 5440 5444 5440 5444 5441 5440 5438 5437 5430 5427
5270 5273 5272 5273 5267 5266 5273 5284 5288 5290 5301 5315 5330 5346 5351 5356 5370 5379 5390 5395 5383 5389 5401 5418 5450 5470 5445 5447 5462 5465 5466 5464 5462 5474 5473 5459 5449 5448 5441 5438 5431 5433 5437 5437 5436 5431 5436 5436 5431 5426 5422 5418 5413 5408
5268 5267 5261 5266 5266 5269 5274 5286 5289 5299 5306 5319 5332 5345 5350 5363 5373 5381 5386 5380 5391 5410 5436 5451 5448 5424 5431 5437 5444 5444 5448 5442 5445 5447 5451 5448 5437 5427 5423 5426 5418 5426 5428 5431 5429 5427 5423 5416 5413 5409 5403 5395 5390 5385
5263 5262 5256 5261 5265 5273 5288 5295 5303 5315 5318 5332 5338 5346 5355 5366 5378 5378 5378 5394 5419 5432 5437 5425 5428 5424 5430 5426 5427 5428 5430 5434 5433 5435 5438 5441 5437 5429 5421 5417 5419 5419 5418 5420 5415 5410 5403 5403 5400 5389 5381 5374 5366 5361
5261 5254 5257 5266 5273 5282 5286 5301 5310 5322 5332 5338 5348 5357 5360 5367 5377 5381 5390 5402 5410 5404 5424 5429 5426 5410 5400 5401 5411 5420 5425 5425 5424 5419 5425 5422 5422 5423 5421 5419 5413 5415 5416 5409 5402 5395 5388 5387 5381 5369 5357 5346 5340 5333
5250 5257 5266 5280 5284 5298 5306 5308 5319 5327 5343 5348 5345 5343 5351 5358 5370 5376 5370 5386 5393 5416 5423 5421 5420 5424 5426 5428 5421 5408 5413 5419 5422 5425 5420 5414 5418 5400 5404 5405 5404 5407 5402 5394 5393 5391 5381 5370 5361 5351 5345 5338 5329 5320
5259 5282 5287 5299 5287 5295 5310 5305 5313 5323 5318 5322 5334 5335 5340 5353 5358 5376 5383 5398 5403 5420 5424 5427 5430 5428 5424 5427 5429 5429 5430 5420 5417 5412 5419 5413 5413 5417 5413 5402 5398 5397 5394 5398 5394 5383 5372 5364 5356 5348 5339 5331 5326 5314
5285 5300 5296 5297 5300 5303 5307 5312 5322 5330 5334 5338 5336 5336 5350 5366 5377 5380 5391 5395 5405 5407 5408 5421 5426 5425 5427 5424 5421 5412 5410 5412 5412 5414 5410 5411 5412 5412 5412 5405 5397 5400 5398 5393 5385 5379 5369 5358 5350 5343 5335 5326 5318 5313
5286 5292 5300 5300 5301 5311 5325 5328 5337 5345 5354 5348 5347 5351 5366 5380 5395 5392 5386 5374 5367 5367 5372 5375 5383 5390 5391 5391 5394 5395 5393 5394 5396 5399 5400 5398 5396 5391 5391 5391 5393 5397 5393 5386 5377 5368 5361 5355 5347 5339 5331 5320 5311 5305
5286 5294 5300 5305 5305 5316 5329 5346 5354 5354 5354 5355 5365 5365 5369 5370 5367 5365 5359 5355 5349 5359 5368 5378 5382 5382 5388 5388 5389 5391 5394 5397 5397 5396 5397 5396 5389 5388 5385 5386 5389 5386 5381 5374 5367 5361 5355 5350 5342 5334 5324 5315 5305 5297
5299 5305 5307 5313 5327 5339 5329 5317 5327 5326 5329 5333 5333 5340 5344 5348 5348 5342 5348 5344 5350 5358 5360 5371 5381 5388 5389 5390 5388 5388 5391 5394 5393 5391 5393 5390 5388 5387 5386 5384 5380 5375 5368 5362 5357 5352 5348 5338 5328 5318 5311 5303 5297 5292
5300 5301 5301 5306 5317 5306 5305 5303 5305 5311 5307 5311 5311 5325 5338 5337 5348 5344 5346 5347 5350 5353 5365 5373 5375 5380 5386 5387 5388 5386 5384 5382 5382 5383 5377 5382 5384 5383 5379 5373 5369 5363 5358 5354 5350 5341 5335 5326 5321 5314 5307 5300 5295 5289
5303 5308 5310 5310 5303 5299 5296 5297 5298 5295 5300 5313 5323 5308 5325 5343 5362 5357 5350 5347 5344 5348 5363 5367 5368 5370 5368 5372 5375 5374 5381 5379 5377 5376 5372 5374 5374 5372 5368 5362 5357 5353 5349 5342 5336 5329 5325 5322 5316 5310 5302 5295 5289 5286
5288 5287 5287 5296 5293 5296 5300 5302 5297 5308 5305 5304 5309 5295 5299 5322 5355 5356 5338 5338 5344 5351 5355 5355 5353 5353 5354 5357 5359 5360 5365 5363 5368 5371 5371 5370 5367 5361 5355 5350 5346 5342 5338 5332 5328 5324 5319 5315 5308 5303 5296 5290 5286 5283